Flag for U.S.A. Weather past 2 weeks in Redmond, Washington, U.S.A.

Now
66 °F

Overcast.


Feels Like: 66 °F
Forecast: 58 / 65 °F
Wind: 10 mph from Southeast

Location: Seattle Boeing Field

Current Time: Sep 1, 2015 at 4:15:29 AM

Latest Report: Sep 1, 2015 at 2:53 AM


Visibility: 10 mi

Pressure: 29.88 "Hg

Humidity: 63%

Dew point: 53 °F

Location of RedmondLocation

Historic Weather in Redmond — Graph

°F

Redmond temperature yesterday

Maximum temperature yesterday: 68 °F (at 1:53 PM)
Minimum temperature yesterday: 65 °F (at 12:53 AM)
Average temperature yesterday: 66 °F

Past Weeks' High & Low Weather Summary

 TemperatureHumidityPressure
High91 °F (Aug 19, 4:53 PM)100% (Aug 30, 3:53 AM)30.15 "Hg (Aug 30, 3:53 AM)
Low57 °F (Aug 22, 3:53 AM)22% (Aug 27, 4:53 PM)29.50 "Hg (Aug 29, 4:53 AM)
Average69 °F55%29.95 "Hg
* Reported Aug 17 2:53 AM — Sep 1 2:53 AM, Redmond, Weather by CustomWeather, © 2015

Note: Actual official high and low records may vary slightly from our data, if they occured in-between our weather recording intervals... More about our weather records

Advertising

Redmond weather history for previous 24 hours

 ConditionsComfort  
Time TempWeatherWind HumidityBarometerVisibility
2:53 AM
Tue, Sep 1
66 °FOvercast.10 mph63%29.88 "Hg10 mi
1:53 AM66 °FMostly cloudy.10 mph63%29.89 "Hg10 mi
12:53 AM66 °FOvercast.9 mph63%29.90 "Hg10 mi
11:53 PM
Mon, Aug 31
66 °FOvercast.9 mph65%29.90 "Hg10 mi
10:53 PM66 °FOvercast.10 mph65%29.90 "Hg10 mi
9:53 PM65 °FMostly cloudy.9 mph70%29.90 "Hg10 mi
7:53 PM65 °FPartly sunny.9 mph73%29.90 "Hg10 mi
6:53 PM66 °FCloudy.3 mph75%29.90 "Hg10 mi
5:53 PM65 °FBroken clouds.8 mph78%29.91 "Hg10 mi
4:53 PM68 °FCloudy.10 mph63%29.92 "Hg10 mi
3:53 PM68 °FCloudy.9 mph63%29.94 "Hg10 mi
3:02 PM68 °FCloudy.10 mph64%29.94 "Hg10 mi
1:53 PM68 °FCloudy.15 mph63%29.96 "Hg10 mi
12:53 PM67 °FCloudy.12 mph66%29.97 "Hg10 mi
11:53 AM65 °FCloudy.15 mph70%29.98 "Hg10 mi
10:53 AM66 °FMostly cloudy.7 mph63%29.98 "Hg10 mi
9:53 AM65 °FPartly sunny.8 mph68%29.97 "Hg10 mi
8:53 AM66 °FOvercast.10 mph59%29.96 "Hg10 mi
7:53 AM65 °FOvercast.13 mph61%29.96 "Hg10 mi
6:53 AM66 °FOvercast.8 mph56%29.95 "Hg10 mi
5:53 AM65 °FOvercast.10 mph59%29.94 "Hg10 mi
4:53 AM65 °FOvercast.15 mph56%29.95 "Hg10 mi
Weather by CustomWeather, © 2015

See weather overviewHow to use our weather pages